Home   Weather   Trieste   Past weeks

Flag for Italy Past Weather in Trieste, Italy — Yesterday and Last 2 Weeks

Now
53 °F

Passing clouds.


Feels Like: 51 °F
Forecast: 44 / 58 °F
Wind: 7 mph from Northeast

Location: Trieste

Current Time: Apr 23, 2017 at 11:59:27 pm

Latest Report: Apr 23, 2017 at 11:00 pm


Visibility: 13 mi

Pressure: 30.14 "Hg

Humidity: 56%

Dew Point: 38 °F

Location of TriesteLocation

Past Weather in Trieste — Graph

°F

Trieste Temperature Yesterday

Maximum temperature yesterday: 59 °F (at 3:00 pm)
Minimum temperature yesterday: 44 °F (at 6:00 am)
Average temperature yesterday: 52 °F

High & Low Weather Summary for the Past Weeks

 TemperatureHumidityPressure
High71 °F (Apr 14, 11:00 am)94% (Apr 15, 7:00 pm)30.40 "Hg (Apr 15, 7:00 pm)
Low41 °F (Apr 20, 7:00 am)21% (Apr 19, 5:00 pm)29.84 "Hg (Apr 13, 6:00 pm)
Average55 °F59%30.05 "Hg
* Reported Apr 8 10:00 pm — Apr 23 10:00 pm, Trieste, Weather by CustomWeather, © 2017

Note: Actual official high and low records may vary slightly from our data, if they occured in-between our weather recording intervals... More about our weather records

Advertising

Trieste Weather History for the Previous 24 Hours

Scroll right to see more
 ConditionsComfort  
Time TempWeatherWind HumidityBarometerVisibility
10:00 pm
Sun, Apr 23
54 °FPassing clouds.7 mph55%30.14 "Hg12 mi
9:00 pm55 °FPassing clouds.2 mph58%30.12 "Hg12 mi
8:00 pm59 °FScattered clouds.No wind59%30.08 "Hg12 mi
7:00 pm60 °FScattered clouds.No wind54%30.07 "Hg12 mi
6:00 pm59 °FScattered clouds.No wind54%30.07 "Hg12 mi
5:00 pm61 °FScattered clouds.1 mph59%30.06 "Hg12 mi
4:00 pm63 °FScattered clouds.7 mph45%30.05 "Hg12 mi
3:00 pm64 °FPassing clouds.7 mph35%30.05 "Hg12 mi
2:00 pm63 °FSunny.9 mph36%30.05 "Hg12 mi
1:00 pm61 °FSunny.9 mph38%30.06 "Hg12 mi
12:00 pm61 °FSunny.10 mph40%30.06 "Hg1 mi
11:00 am60 °FSunny.8 mph41%30.05 "Hg12 mi
10:00 am58 °FSunny.9 mph45%30.04 "Hg12 mi
9:00 am55 °FPassing clouds.9 mph45%30.03 "Hg12 mi
8:00 am54 °FSunny.8 mph55%30.02 "Hg12 mi
7:00 am49 °FPassing clouds.No wind50%30.03 "Hg6 mi
6:00 am50 °FPassing clouds.5 mph42%30.03 "Hg6 mi
5:00 am46 °FPassing clouds.No wind57%30.03 "Hg6 mi
4:00 am46 °FPassing clouds.No wind45%30.03 "Hg6 mi
3:00 am46 °FPassing clouds.2 mph45%30.03 "Hg6 mi
2:00 am46 °FPassing clouds.1 mph45%30.04 "Hg6 mi
1:00 am48 °FPassing clouds.No wind40%30.04 "Hg6 mi
12:00 am50 °FPassing clouds.No wind35%30.04 "Hg6 mi
11:00 pm
Sat, Apr 22
51 °FPassing clouds.No wind34%30.06 "Hg6 mi
Weather by CustomWeather, © 2017

See weather overviewHow to use our weather pages